Baseball 板


LINE

义大犀牛 高国辉 林旺卫 张建铭 中信兄弟象 裁判 1 胡金龙 \  周思齐 陈子豪 张正伟 / 1 张正伟 主 张展荣 2 张建铭 \     陈凯伦 蓝少白   /  2 王胜伟 一 江春纬 3 高国辉 王胜伟 潘萣翔 /   3 张志豪 二 吴家维 4 林益全  阳冠威 林益全   4 周思齐 三 纪华文 5 郑达鸿 黄仕豪 苏纬达  5 陈子豪阳冠威     \ 希克 /      6 苏纬达林旺卫 DH \ 克兰顿 /  DH    7 潘萣翔陈凯伦 胡金龙 \   / 张志豪   8 黄仕豪蓝少白          \ /         9 周圣训 郑达鸿 主播台 纬来体育台&精采台 周圣训 纬来 杨正磊 郑幸生 ELTA育乐 三频道直播 ELTA 陈捷盛 郑景益 --



※ 发信站: 批踢踢实业坊(ptt.cc), 来自: 36.229.123.21
※ 文章网址: https://webptt.com/cn.aspx?n=bbs/Baseball/M.1444298820.A.E0B.html
1F:→ cissant: 只有兄弟在练兵 给推 10/08 18:07
2F:推 RedHotTiger: 爪爪练兵罗 不动四棒终於下去了 10/08 18:07
3F:推 ysku: 王胜伟是超人吗 10/08 18:07
4F:→ dunhiller: 反观 10/08 18:07
5F:推 jay1943webbe: 苏伟在哪里! 10/08 18:08
6F:推 cissant: 补推 10/08 18:08
7F:推 ils0104: 这练兵练得不够彻底啊XD 10/08 18:08
8F:推 suzy0717: 王拔补出赛数吧 10/08 18:08
9F:→ ultratimes: 兄弟有机会创下封王後连败到最後一场比赛的纪录吗? 10/08 18:08
10F:→ ils0104: 王胜伟还要拼金手套吧~场次还不够 10/08 18:08
11F:→ suzy0717: 某u又来秀下限 XD 10/08 18:09
12F:推 encorej77107: 只有恰恰没上啊 其他该上的都有上 10/08 18:09
13F:→ hicker: 反正有总冠军赛可以打就好 封王後连败其实也不在乎 10/08 18:09
14F:→ jimmy8343: 练兵的概念 10/08 18:09
15F:→ hicker: 看看海另一端的软银 封王後战绩也是不好看.... 10/08 18:10
16F:推 ysku: 轻松打 越会赢 10/08 18:10
17F:推 MAX777: 消化比赛连败会算入明年战绩吗? 10/08 18:10
18F:→ hicker: 算今年呀 10/08 18:10
19F:→ jimmy8343: 我建议张志豪王胜伟周思齐张正伟也可以下去休息 10/08 18:10
20F:推 ALspeed: 会算入跨年度连败... 10/08 18:11
21F:→ ysku: 有些球员需要出赛维持手感 10/08 18:11
22F:推 ChargeI: 见证历史,40轰 10/08 18:11
23F:→ campdkny: 王拔和红龟的出赛数都还不够吧... 10/08 18:13
24F:→ if2: 也没有练很大啊 10/08 18:13
25F:推 pw080325043: 林王呢 10/08 18:13
26F:推 ORK: 肥恰终於去板凳了~给推 10/08 18:13
27F:推 cityhunter04: 正常练兵!周跟张应该是要调整手感……… 10/08 18:14
28F:推 s83106: 志豪伤刚好上来练练手感 王拔是补出赛场数拚金手套 10/08 18:14
29F:嘘 hy654: 兄弟开始练兵了 就不要连1.5军等级的兄弟都打不赢 10/08 18:15
30F:推 dsauqt: 感谢某u让我象封王 10/08 18:16
31F:→ s83106: 周董也是练手感 昨天之前状况不太好 10/08 18:16
32F:推 hsienlee: 国辉轰! 10/08 18:16
33F:→ purin820611: 记得有年兄弟下半季封王之後消化比赛全败XD 10/08 18:20
34F:→ ePaper: 合体:希克兰顿 10/08 18:21
35F:推 linisthebest: 才让一半 失败 10/08 18:22
36F:推 MAX777: 怎麽不让鲶鱼弟蹲 10/08 18:23
37F:推 ils0104: 练周正常啊~+G有伤~周可能会当2号捕手 10/08 18:26
38F:推 hsi0516: 国华有在一军吗 投给哥哥打吧~ 10/08 18:26
39F:推 SuperSg: 消化适合 10/08 18:28
40F:推 waijr: 周圣训完程度比较高 10/08 18:29
41F:推 xu3jo6su6: we 阿勒~ we we 阿勒~ 10/08 18:31
42F:推 mix5172000: EXID 的歌 10/08 18:31
43F:→ luaniu: 正花最正啦 10/08 18:31
44F:推 meta41110: 苏伟苏伟...苏伟...苏伟.. 10/08 18:32
45F:→ xu3jo6su6: 率智留下 其他自己分 10/08 18:32
46F:→ luaniu: 怎麽没表演Ah yeah 10/08 18:32
47F:推 trylin: HANI我就不客气了 10/08 18:32
48F:推 mix5172000: 我要HANi 10/08 18:33
49F:推 pomelo0608: 这场重点就看国辉了 10/08 18:33
50F:→ WongTakashi: VL-S 杨正磊 郑幸生 10/08 18:33
※ 编辑: hicker (36.229.123.21), 10/08/2015 18:34:55
51F:推 encorej77107: 正花最正 10/08 18:33
52F:推 Kouzuki: u大师真的不简单 怎样都可以酸 10/08 18:33
53F:→ Kouzuki: ELTA 陈捷盛 郑景益 10/08 18:34
54F:推 ttnakafzcm: 张江吴纪 10/08 18:34
55F:→ Kouzuki: 张展荣 江春纬 吴家维 纪华文 10/08 18:34
※ 编辑: hicker (36.229.123.21), 10/08/2015 18:35:23
56F:推 Rex3661: 我辉40轰预备~~ 10/08 18:35
57F:推 WasHenryTsen: 鳟鱼弟打DH喔 10/08 18:36
58F:推 Dawei1165: 先神串留名你辉40轰 10/08 18:37
59F:推 howard9966: 推40 ! 10/08 18:37
60F:→ campdkny: 大头.....你再混嘛 10/08 18:38
61F:推 kroya: 既然要练兵~就让国辉轰吧~ 上看50轰 10/08 18:38
62F:推 honway: 40来了 10/08 18:38
63F:推 Petrovic: 黄不EY 10/08 18:38
64F:推 batsakura: 大头还是烂泥扶不上墙 10/08 18:39
65F:→ WongTakashi: 国辉你..................... 10/08 18:40
66F:推 forgetta: 当年马怪尔消化比赛打第一棒 高国辉不试试看吗? 10/08 18:40
67F:→ forgetta: 有机会多打一次 10/08 18:40
68F:推 hhpsjoe: 导播还在状况外.. 10/08 18:40
69F:嘘 jocabyu: 民视拍的真烂,被触杀出局还拍不到... 10/08 18:40
70F:→ f59952: 导播 !!!!! 10/08 18:40
71F:推 joey89116: 87国徽 10/08 18:40
72F:→ campdkny: 国辉怎麽会跑咧 @@" 10/08 18:40
73F:推 jj1004: 高国辉不开心了 看来要炸了 10/08 18:40
74F:推 encorej77107: 居然没传3垒 蛮少见的 10/08 18:40
75F:推 Petrovic: 民视也在练兵 呵呵 10/08 18:41
76F:→ spy9527: 再忍一个月吧 10/08 18:41
77F:推 panjanhon: 传三垒应该抓不到 传二垒距离比较短一点 10/08 18:41
78F:推 egg43: 没传3垒很正常 臂力不足不如传2垒 10/08 18:41
79F:→ f59952: 什麽背力不足 那麽远 国辉乱跑当然往那传 10/08 18:42
80F:推 edouard09: 连败有差吗?都封王了怎样输只有某U会高潮吧 10/08 18:45
81F:推 sg8888sgsg: HHHHHHHHHHHHHHHHHHHHHH 10/08 18:45
82F:→ luaniu: gone 10/08 18:45
83F:→ sg8888sgsg: HR 10/08 18:46
84F:推 qqqqer: 炸 10/08 18:46
85F:推 WongTakashi: HRRRRRRRRRRRRRRRRRRRRRRRRRRRRRRRRRRRR 10/08 18:46
86F:推 f59952: 鲶鱼弟是林明杰 10/08 18:46
87F:推 dsauqt: 练兵还赢球 10/08 18:46
88F:嘘 allenlittle: 义大还是拼垫底好了 10/08 18:46
89F:→ sg8888sgsg: 台版YOH 10/08 18:46
90F:→ qqqqer: 9球3分… 10/08 18:46
91F:→ samggyy: 义大垫不了底了 10/08 18:46
92F:→ jimmy8343: 今天是希克投喔... 10/08 18:47
93F:推 encorej77107: 达鸿太大意了 10/08 18:47
94F:→ sorrycar: 被醉爪打爆 10/08 18:47
95F:推 chen06: 咦?今天不是要练兵 XD 10/08 18:47
96F:→ sg8888sgsg: 连三安 感觉有点抖 10/08 18:47
97F:→ jimmy8343: 请别担心 现在还没到练兵棒次 被打也不用太难过 10/08 18:48
98F:→ yyc1217: 明年希克还会续约吗... 10/08 18:52
99F:推 qqqqer: 151 10/08 18:52
100F:→ BaRanKa: 这只苏 也还蛮厚实的身材 10/08 18:52
101F:推 a1len: http://i.imgur.com/710wnTc.png 10/08 18:53
102F:→ spy9527: 耍什麽 10/08 18:53
103F:推 iclaire: 这啥XDDDDDDDDDD 10/08 18:53
104F:→ qqqqer: 哈哈哈 10/08 18:53
105F:→ thnlkj0665: ...... 10/08 18:53
106F:推 hhpsjoe: XD 偷秀 10/08 18:53
107F:推 Petrovic: ... 10/08 18:53
108F:→ BaRanKa: 哈林野球 10/08 18:53
109F:推 dsauqt: 楼上我笑了 10/08 18:54
110F:推 chivalry1987: 耍宝喔 10/08 18:54
111F:推 taisam23: 苏高中毕业原本国外球队要签 结果他没签 10/08 18:54
112F:推 egg43: 停下来直接传也比转传快...... 10/08 18:54
113F:→ BaRanKa: 哇塞 第一局就33颗 10/08 18:54
114F:嘘 ORK: 这球不能自己赚身传球吗? 10/08 18:54
115F:推 chen06: 原来练兵的义大?刚练了守备 XD 10/08 18:54
116F:推 liu724588: 刷猴戏吗 10/08 18:54
117F:推 smallallen03: XDDDD 10/08 18:54
118F:推 chawer: 搞笑 10/08 18:54
119F:→ yyc1217: 是角度很难转过来吗?? 10/08 18:55
120F:→ ORK: 兄弟的啦啦队~~~看起来~~~~嗯......不予置评 10/08 18:55
121F:→ spy9527: 希克很不爽 10/08 18:55
122F:推 xu3jo6su6: 画虎不成反类犬之传球 10/08 18:55
123F:嘘 wusky1982: 够低能 烂球技 耍什麽啊 10/08 18:55
124F:推 motonpom: 未看先猜高国辉今晚40轰 10/08 18:55
125F:推 JYHuang: 我有感觉到希克的无奈... 10/08 18:56
126F:嘘 SungHyun: 哈哈 练兵午午都还压不住!!!!!!!!!!!!!! 10/08 18:56
127F:→ wusky1982: 希克都想笑惹 10/08 18:56
128F:推 joey89116: 挖 不敢信欸竟然出局 10/08 18:56
129F:→ ORK: 希克:要耍猴戏~请去LM 10/08 18:56
130F:→ xu3jo6su6: 用球数差不多是自己球衣背号... 10/08 18:56
131F:推 liu724588: 蓝继续2军吧 10/08 18:57
132F:推 egg43: 潘感觉以为球会传2垒没认真跑?? 10/08 18:57
133F:推 Petrovic: 全力跑应该会安打 10/08 18:57
134F:推 RZPTT: 兄弟啦啦队看来不怎样应该跟她们服装造型实在不怎样有关 10/08 18:57
135F:→ bighdogs: 是否想上美技票选? 10/08 18:57
136F:推 encorej77107: 陈凯伦臂力>咖啡 10/08 18:57
137F:推 ttnakafzcm: PS颜值不错啊 但是衣服可以改进 10/08 18:58
138F:推 jj1004: 我犀一直打第一球 很想下班XD 10/08 18:59
139F:→ sorrycar: EDA出局如风 10/08 18:59
140F:推 RealWill: 义大怎麽没有趁机洗数据 10/08 19:01
141F:推 jj1004: 又打第一球XD 10/08 19:02
142F:→ yyc1217: 哼哼 明天到桃园就知道了 10/08 19:03
143F:推 encorej77107: 真4棒 10/08 19:03
144F:→ jj1004: 每球都挥XD 10/08 19:04
145F:→ jj1004: 慢动作好好笑XD 10/08 19:04
146F:→ chenlu0930: 飞天啦~ 10/08 19:04
147F:→ encorej77107: 跳恰恰 10/08 19:04
148F:→ de606430: 队长赶下班啦 >< 10/08 19:04
149F:推 yyc1217: 犀牛从第一局就在赶下班 10/08 19:04
150F:→ jj1004: 义大一堆球来就打 跟本想下班XD 10/08 19:05
151F:→ encorej77107: 克今天球不是偏高就红中 义大又不等球的 10/08 19:05
152F:→ f59952: 除非拼奖项 应该都会丢进去为主 10/08 19:07
153F:→ bbo9527: 等等菜逼八上来时给国辉打HR拼40我可以XD 10/08 19:10
154F:推 BOIAN05: 两局还没结束快60球了= = 10/08 19:12
155F:→ GoldenWasabi: 觉神! 10/08 19:15
156F:推 pdr666333: 觉神再起 10/08 19:15
157F:推 yyc1217: 练兵模式启动? 10/08 19:16
158F:→ lostguy: 觉神!!! 10/08 19:16
159F:推 adanielx23: 觉神! 10/08 19:16
160F:推 dsauqt: 22球勒 10/08 19:16
161F:推 StephenLai: 都打第一球 看不出哪队在练兵 10/08 19:16
162F:→ pdr666333: 接的抖抖 10/08 19:16
163F:推 a12375111: 觉神!!! 10/08 19:17
164F:→ StephenLai: 4球结束一局 还可以再少一点吗? 10/08 19:17
165F:推 jj1004: 全员赶下班 笑翻XD 10/08 19:17
166F:推 a0912574942: 这半局有一分钟吗? 10/08 19:17
167F:→ helba: 回家模式 10/08 19:17
168F:→ sorrycar: 球来就打 出局如风 10/08 19:17
169F:推 dailylily: 三局不到25球 还掉过一分 这甚麽魔术 10/08 19:18
170F:→ sorrycar: 也看不出每个都想尻炮 大概是想早点收工回去 10/08 19:18
171F:→ jimmy8343: 今天要拼最少用球完投吗? 10/08 19:18
172F:→ StephenLai: 都这样打克兰顿完封两场还不会破百球 10/08 19:19
173F:推 cobras638: @jocabyu 明年义大兄弟将由纬来拍摄与制播 在忍耐一下 10/08 19:19
174F:推 POD0741: 希克表示... 10/08 19:20
175F:推 chen06: 希克已用64球! 10/08 19:20
176F:推 ttnakafzcm: 甩甩自打球.. 10/08 19:23
177F:推 daniel1344: 神全你回来惹 10/08 19:24
178F:推 Petrovic: 主审= = 10/08 19:24
179F:推 jj1004: 冠威的直线传球勒XD 10/08 19:24
180F:推 ding0214: 沾酱油还传慢豆XD 10/08 19:24
181F:→ f59952: 神全还是接不到 10/08 19:24
182F:推 StephenLai: 关神全什麽事 daniel神逻辑 10/08 19:25
183F:推 yyc1217: 滑掉了吧 10/08 19:25
184F:推 encorej77107: 这球阳E 可是神全也有责任 10/08 19:25
185F:→ encorej77107: 阳传球还是多练吧 10/08 19:25
186F:→ encorej77107: 这球正牌普通一垒手都可以轻松接到 10/08 19:26
187F:推 a129517496: 这球慢豆说真的没啥难度 10/08 19:26
188F:推 lostguy: 镜头请对壮壮就好 10/08 19:28
189F:推 hhpsjoe: 大胖XDDDDDDD 10/08 19:28
190F:→ lostguy: 琳上了 10/08 19:28
191F:→ Xiong271: 大胖正式转型了吗 10/08 19:29
192F:推 OrniG: 今天如果两边投手都投到5局,可以破用球数差最多的纪录吗? 10/08 19:29
193F:推 coon182: 爪爪说好的练兵呢? 10/08 19:30
194F:推 dsauqt: 31球 10/08 19:30
195F:推 hhpsjoe: 大胖真的越来越幽默了 10/08 19:30
196F:推 lostguy: 赶下班看PS 10/08 19:30
197F:→ actoss: XDDD 10/08 19:30
198F:推 spy9527: 想吃消夜太明显 10/08 19:31
199F:→ flicker36: 死到有剩 10/08 19:31
200F:推 jkf790207: 大家都在赶下班~ 10/08 19:31
201F:推 pdr666333: 这是自杀吧 10/08 19:31
202F:推 POD0741: ...想家了吗 10/08 19:31
203F:推 Petrovic: 大头... 10/08 19:31
204F:推 ttnakafzcm: XDDDDDDDDDDDDDDDDDDDDDDDDD 10/08 19:31
205F:推 YesHi: 死到有剩 10/08 19:31
206F:推 jj1004: 我犀摆明想下班 笑死XD 10/08 19:31
207F:→ lostguy: XDDD自杀跑垒 10/08 19:31
208F:推 a12375111: 怎麽会想跑二垒 也差太多XD 10/08 19:31
209F:→ ttnakafzcm: 4 inning 33NP 10/08 19:31
210F:推 yyc1217: 这太明显了XDDDDDDDD 10/08 19:31
211F:推 encorej77107: 这跑垒真的很想家 10/08 19:31
212F:→ bbo9527: 等等...待会打完要去餐厅庆祝的不是兄弟吗...... 10/08 19:31
213F:→ jkf790207: 两边的投球数也差太多 10/08 19:32
214F:推 a129517496: 老实说我觉得这球周董传应该会safe 10/08 19:32
215F:推 dailylily: 打出去发现竟然穿了 只好乱跑拚出局下班XD 10/08 19:32
216F:→ lostguy: 加油 好吗?(小胖口吻) 10/08 19:32
217F:推 chen06: 今天在练兵的是义大无误,守备和跑垒都有练到 XD 10/08 19:32
218F:推 FX5900XT: Pollo 10/08 19:32
219F:→ bbo9527: eda是餐厅没订位赶着收工去抢位置喔xd... 10/08 19:32
220F:→ ttnakafzcm: 在周记的牛迷表示:我可以退票吗...(误 10/08 19:32
221F:→ f59952: 这谁敢跑啦 太扯了 10/08 19:32
222F:推 BOIAN05: 兄弟是有发请帖请牛牛一起去餐厅吗... 10/08 19:32
223F:嘘 hayato24: 海水退了,义大又回复原状了,才发现,大家都没穿裤子.... 10/08 19:33
224F:→ f59952: 这那个三垒手好守 干嘛怪大头 10/08 19:33
225F:→ ttnakafzcm: 这种距离要冲2B真的要脚程够快 10/08 19:33
226F:推 yyc1217: 这样我还宁愿看二军上来练咧 唉 10/08 19:33
227F:推 encorej77107: 林ww跑很快 林王太准 10/08 19:33
228F:推 POD0741: 象:一起吃晚餐ok?犀:no problem! 10/08 19:33
229F:→ bbo9527: 兄弟:eda要一起吃饭吗 但是我没订你们的位喔xd 10/08 19:34
230F:→ jkf790207: 觉神 10/08 19:35
231F:推 FromD: 肥刀染头发? 10/08 19:35
232F:→ encorej77107: 陈凯伦怪怪的 守ss居然还没乱喷球 10/08 19:35
233F:推 ttnakafzcm: 阳冠威E? 10/08 19:35
234F:→ encorej77107: eeeeeeee 10/08 19:36
235F:推 tomashsue: 冠威今天ㄌ有点惨 10/08 19:36
236F:推 jj1004: 冠威今天恢复正常了?..... 10/08 19:36
237F:→ encorej77107: 位置有点尴尬 10/08 19:36
238F:推 yyc1217: [新闻] 克拉帝透露 前犀牛贾西亚来台打12强 10/08 19:36
239F:→ lrh18: 这脚步根本不对 基本动作还是不够 10/08 19:36
240F:→ tomashsue: 凯伦这个守备漂亮 10/08 19:36
241F:→ jj1004: 陈凯伦>>>>>咖啡 10/08 19:36
242F:→ ttnakafzcm: 33 V.S. 86 这也差太多 10/08 19:36
243F:推 jay1943webbe: 本垒後面那球迷举 王胜伟 地表最强男 都不会心虚吗 10/08 19:37
244F:→ ksshen: 纬来球评:两个弹跳分成很好处理跟不好处理... 10/08 19:37
245F:→ jj1004: 他可能以为是王少伟吧 10/08 19:38
246F:推 chen06: 等等大老板请吃饭只好打快一点? 10/08 19:39
247F:推 t55020255: 今天打超快 10/08 19:40
248F:推 encorej77107: 今天应该会破史上最少球纪录 10/08 19:40
249F:推 ding0214: 蔡明觉2B守的真顺 10/08 19:41
250F:→ f59952: 限制60球都可以吃八局了 哈哈 10/08 19:41
251F:→ sorrycar: 球来就挥 脑冲进垒  比爪还练兵 10/08 19:42
252F:推 chen06: 义大是人好还是要一起去餐厅吃饭?克大叔5局只用46球 10/08 19:43
253F:→ sorrycar: 不到50球5局 10/08 19:43
254F:推 BOIAN05: 克:咦 休息了吗 我才刚热身完欸 10/08 19:44
255F:推 darkagesgaga: 也太少人推文 10/08 19:49
256F:推 chen06: 希克用球数已经97球(五局末结束) 10/08 19:50
257F:→ coon182: 消化试合,这样已经很好了 10/08 19:50
258F:推 Petrovic: 送分.. 10/08 19:50
259F:推 Nobita: 我虾 QQ 10/08 19:51
260F:推 darkagesgaga: 无言 10/08 19:51
261F:→ hayato24: 典型的希克送分 10/08 19:51
262F:推 SungHyun: 爆了XDDDDDDDDDDDDDDDDDDDDDDDDDDDDDDDDDDDDDDDDDDDDDDD 10/08 19:51
263F:推 jay1943webbe: 苏伟在哪里 10/08 19:51
264F:→ mtwtfss: 中外野手要跑去哪 10/08 19:51
265F:推 Rex3661: 要是钓虾这球早就~~~~ 10/08 19:51
266F:推 KY1998: 纬达~纬达~纬大力~~~~ 10/08 19:51
267F:→ SungHyun: 爽!!!!!!!!!!!!!!!!!!!!!!!!! 10/08 19:51
268F:推 MuseLand: WOW 10/08 19:51
269F:推 pdr666333: 苏是你基的学长吗? 10/08 19:51
270F:推 tim890116: 这只有点猛耶 10/08 19:52
271F:推 Saza: 苏汉草不错 兄弟终於没在二军弄一堆腿哥 10/08 19:52
272F:嘘 yyc1217: 又让我想到无良和红中的嘴脸 生气 10/08 19:52
273F:→ SungHyun: 正妹我的 10/08 19:52
274F:推 gotowayhome: 跟我基同类型的 10/08 19:52
275F:→ pdr666333: 阿觉H了 10/08 19:52
276F:推 dudeboy: 大胖刚刚说什麽学园 没听清楚?? 10/08 19:52
277F:推 JEFF11503: 觉神!!! 10/08 19:52
278F:推 Petrovic: 觉神! 10/08 19:53
279F:→ happiness077: 二军的逆袭 10/08 19:53
280F:→ WongTakashi: 大胖:偶像学园(误 10/08 19:53
281F:推 lostguy: 这麽想逛逢甲夜市 10/08 19:53
282F:推 eternal3326: 觉神HHHHHHHHHHH 10/08 19:53
283F:推 feveregg: 兄弟二军完胜午午一军 10/08 19:53
284F:推 Goeaturdick: 稀客坏了 10/08 19:53
285F:→ pdr666333: 这阵容竟然打爆希克 10/08 19:53
286F:推 unformat: 可以换投了吧 10/08 19:53
287F:→ SungHyun: 希克好惨 10/08 19:54
288F:→ lostguy: 炸了,考虑换吧 10/08 19:54
289F:→ Petrovic: 打不完了 10/08 19:54
290F:→ MAX777: 爪二军现在一堆大只的阿 蔡益民 林明杰 10/08 19:54
291F:推 jay1943webbe: 等一下兄弟应该会练投手了 10/08 19:54
292F:推 ttnakafzcm: 大胖说关西学园? 10/08 19:54
293F:推 chen06: 兄弟的练兵打线,5局10安得6分! 10/08 19:55
294F:推 jocabyu: 1.5军 6:1 1军 10/08 19:56
295F:推 pdr666333: Allen524: 中信几乎等於是整队都换掉了..XDDD练超大 10/08 19:57
296F:推 yyc1217: 今天打好快 10/08 19:57
297F:→ pdr666333: 大师有开示 10/08 19:57
298F:推 eternalviva: pollo的逆袭 10/08 19:58
299F:→ sorrycar: 看爪会不会提早换 练几个投手 不然要被1.5军电爆了 10/08 19:58
300F:→ a09619508: 524果然臭嘴 10/08 20:00
301F:推 jay1943webbe: 练投了 义大机会来了吗 10/08 20:01
302F:推 qqqqer: 三毛 10/08 20:01
303F:推 Petrovic: 我爪要练到底了 10/08 20:01
304F:→ Petrovic: NP 10/08 20:02
305F:推 a200147: 40轰预备 10/08 20:02
306F:推 a129517496: 40来一发吧 10/08 20:02
307F:→ daniel1344: 林英杰失投应该就会被扛出去 10/08 20:02
308F:推 aska5566: 坏球都能安 10/08 20:04
309F:→ godblesssam: 二军超猛阿! dpppppp 10/08 20:04
310F:推 Petrovic: DP 10/08 20:04
311F:推 yyc1217: 赶下班DP 10/08 20:05
312F:→ BaRanKa: 叶总这麽果断换了 10/08 20:06
313F:推 MAX777: 等等爪请吃饭欸 干嘛安打,快打个DP赶下班 10/08 20:06
314F:推 aa97531aa: 午午好惨啊 快抢状元啊 10/08 20:11
315F:推 yoyoboy1: 爪爪几乎板凳+二军打线了 还可以这麽猛 10/08 20:12
316F:→ yoyoboy1: 一军都不见得可以打这麽多分了XDDDD 10/08 20:12
317F:推 aska5566: 爪爪为何这麽能打 10/08 20:14
318F:推 luaniu: 二军打线超猛 10/08 20:15
319F:推 murray: 怎麽觉得爪爪的二军比一军还强 XD 10/08 20:15
320F:推 Petrovic: 我林王! 10/08 20:16
321F:推 yyc1217: 早换二军上来也不用等昨天丢彩带 10/08 20:16
322F:推 pjharper: 派二军打冠军赛吧~ 10/08 20:17
323F:推 tim890116: 二军养了一堆炮XDDD 10/08 20:17
324F:推 hsuween: 象二军火力超猛 10/08 20:17
325F:→ loveinmars: 谢谢524:))))) 10/08 20:17
326F:推 leotompp: 这二军 的下半季冠军BUFF也太强了吧..... 10/08 20:17
327F:推 straggler7: 其实兄弟要派二军打季後赛 10/08 20:17
328F:推 hjbe5932: 我爪二军选手终於不再是一堆腿哥,欣慰 10/08 20:18
329F:推 t55020255: 话说二军怎会打输LM XDD 10/08 20:18
330F:推 yoyoboy1: 兄弟: 靠~~!! 原来我板凳超深  10/08 20:18
331F:推 loveinmars: 因为2军投手实在满烂的XDDD 10/08 20:19
332F:→ s83106: 兄弟二军投手很烂 10/08 20:20
333F:推 Petrovic: 磊哥 10/08 20:21
334F:推 lostguy: 三石 10/08 20:21
335F:推 yyc1217: 我要当老师!!!!!!!!!!!! 10/08 20:21
336F:→ bbo9527: 汉典哥? 10/08 20:21
337F:推 a129517496: 瘦板肥刀 10/08 20:22
338F:推 yoyoboy1: 这投手看起来屌屌der 10/08 20:22
339F:推 smallwenwen: 长的有喜感 10/08 20:23
340F:推 yankeessuck: 林俊杰mix汉典 10/08 20:23
341F:推 hhpsjoe: 根本陈汉典 10/08 20:23
342F:→ f59952: s83. ??? 10/08 20:23
343F:推 dudeboy: 1这好球?? 10/08 20:23
344F:嘘 encorej77107: 这好球笑死人 10/08 20:23
345F:推 PCC2003: 比前一球好XD 10/08 20:23
346F:推 FromD: 长的有点像林瑟康? 10/08 20:23
347F:→ dudeboy: 有点像没画眼线的王羲之 10/08 20:23
348F:推 yyc1217: 好球XDDDD 10/08 20:23
349F:推 godsong: 赶放假好球带 10/08 20:23
350F:推 Petrovic: 汉典4NI? 10/08 20:24
351F:推 WeAntiTVBS: 炸了 10/08 20:24
352F:→ godsong: hr 10/08 20:24
353F:推 werger: 典哥被炸了 10/08 20:24
354F:→ zacawoo: 10轰! 10/08 20:24
355F:推 daniel1344: 十轰+1 10/08 20:25
356F:→ MAX777: 欢迎加入中华职棒 10/08 20:25
357F:推 jj1004: 震撼教育 10/08 20:25
358F:→ FromD: 被洋炮炸一发 10/08 20:25
359F:嘘 hayato24: 不要脸,连主审都赶下班 10/08 20:25
360F:推 StephenLai: 主审硬给1K,冠威看不过去了 10/08 20:25
361F:推 PCC2003: EDA第五位10轰 10/08 20:25
362F:推 yyc1217: 欢迎来到中华职棒 10/08 20:25
363F:推 cht211: welcome to CPBL 10/08 20:25
364F:→ FromD: 那击球砰超大声 10/08 20:26
365F:推 rodyguy: 每投一球都要桥帽子... 10/08 20:26
366F:推 dudeboy: 为什麽林旺卫也要拉袖子...... 10/08 20:26
367F:推 JEFF11503: 欢迎加入中华职棒 10/08 20:26
368F:推 jay1943webbe: 义大好好选应该一直上垒吧 这支坏球太多 10/08 20:26
369F:→ godsong: eda 什麽都没了 裁判还要搞 到底有什麽深仇大恨 10/08 20:26
370F:推 MAX777: 可以抓线内吧 10/08 20:28
371F:推 StephenLai: 义大一向没裁判缘 不意外 10/08 20:28
372F:推 Petrovic: 这守备.. 10/08 20:28
373F:推 hjbe5932: 苏直接定格XD 10/08 20:28
374F:推 wayne1019: 99不是飞刀? 10/08 20:28
375F:推 Saza: 主审没抓 算很帮忙了 10/08 20:28
376F:→ sorrycar: 没啥控球 午胃口还是很好 10/08 20:28
377F:→ jordan1227: 刚好像有点线内? 10/08 20:28
378F:推 yyc1217: 先打到ww吧 10/08 20:28
379F:推 encorej77107: 周圣训比陈家驹还会接球 10/08 20:28
380F:→ MAX777: 要是红中早出来抓跑线内了 10/08 20:29
381F:→ f59952: 鲨鱼 ……乱说 是兄弟不想吵 10/08 20:29
382F:→ an123456781: 这妨碍守备了吧 10/08 20:29
383F:推 crusaders811: 郑幸生根本乱掰 10/08 20:29
384F:推 sendow: 明显妨碍守备了,鲨鱼还在那543 10/08 20:30
385F:推 zacawoo: 郑幸生这样也可以当球评== 10/08 20:30
386F:→ MAX777: 就这种杀猪公的,最好跑线内没事 10/08 20:31
387F:推 BadSalaD: 99怎麽换人@@ 10/08 20:31
388F:推 Petrovic: 义大好捧场 10/08 20:31
389F:→ s83106: 99换很久了 10/08 20:35
390F:→ f59952: 鲨鱼加油好吗 10/08 20:36
391F:推 dudeboy: 这投球姿势超炫的 10/08 20:40
392F:推 cucu1126: 阳炮守备练习 10/08 20:40
393F:推 hu610346: 阳冠威都慢慢处理滚地球 然後快快传球XD 10/08 20:41
394F:推 hjbe5932: 大头怎马上就死XD 10/08 20:42
395F:→ hu610346: 林益全看到他慢慢处理球的时候应该满怕的吧XD 10/08 20:42
396F:推 encorej77107: 守备真的有练有差 希望阳季末能继续练 10/08 20:43
397F:推 daniel1344: 胡老板搞笑 10/08 20:44
398F:推 encorej77107: 胡这局在干嘛xd 10/08 20:45
399F:推 trylin: HU感觉季後赛无望了以後完全没劲 10/08 20:45
400F:→ trylin: 加上上次屠杀自杀,感觉他真的对个人奖一点兴趣都没有 10/08 20:46
401F:推 smallwenwen: 想着高尔夫吧 10/08 20:46
402F:→ encorej77107: 打身体健康的吧 10/08 20:46
403F:推 encorej77107: 邱好杀 10/08 20:48
404F:推 hsuween: KKK 有点猛 10/08 20:49
405F:推 batsakura: KKKKKKKKKKKKKKKKKKKK 10/08 20:49
406F:→ MAX777: 今天开不少好福袋 10/08 20:49
407F:推 gn7722: 看来国辉急了 10/08 20:49
408F:推 Petrovic: 强暴惹 10/08 20:49
409F:→ tim890116: 胡老板不是想打高尔夫吗 10/08 20:50
410F:推 ntusimmon: ultratimes: 兄弟有机会创下封王後连败到最後一场比赛 10/08 20:50
411F:→ ntusimmon: 的纪录吗? 10/08 20:50
412F:推 qqstory: 一份就是要扛全垒打 10/08 20:50
413F:推 hayato24: 唉...胡老板就根本不想刷数据,不然上次就刷永维拉了 10/08 20:51
414F:推 campdkny: 冰淇淋妹今天穿好多 10/08 20:51
415F:推 lostguy: 好肉感,但是我喜翻 10/08 20:51
416F:→ coon182: 看来国辉要回到熟悉的场地破40了 10/08 20:52
417F:推 aa97531aa: 午午继续输 还有机会抢状元吗 10/08 20:53
418F:→ coon182: 不知道这场有没有机会两小时半打完 10/08 20:53
419F:推 tim890116: 喵喵上次状元魔术数字都归零了 10/08 20:53
420F:推 lostguy: 鲶鱼弟 10/08 20:54
421F:→ Isaac: 大物捕手炮 林明杰!!! 10/08 20:54
422F:推 batsakura: 捻鱼弟!! 10/08 20:54
423F:→ oceanman: 好大只 10/08 20:55
424F:推 encorej77107: 赖怪怪的 全直球 10/08 20:56
425F:→ encorej77107: 难怪不配xdddddddd 10/08 20:57
426F:推 orznge: 林有够壮 10/08 20:57
427F:推 daniel1344: 传什麽鬼 10/08 20:58
428F:推 pdr666333: 咖啡的传球= = 10/08 20:59
429F:推 encorej77107: 神全救了咖啡 10/08 20:59
430F:→ f59952: 太浪漫了吧 咖啡 10/08 20:59
431F:推 jj1004: 是不是陈凯伦好多了.... 10/08 20:59
432F:推 lovetaros: 三个捕手在打线里 10/08 20:59
433F:推 mark2334567: 帮神全特训… 10/08 20:59
434F:→ encorej77107: 阳冠威: 神全偏心 10/08 20:59
435F:推 luaniu: 二军展示火力 10/08 20:59
436F:推 yoyoboy1: 兄弟好强阿~~~!!  不考虑代二军去打总冠军? 10/08 21:00
437F:推 batsakura: 前几天用2军打会部会提前封王?? 10/08 21:00
438F:推 murray: 林王好猛阿 10/08 21:00
439F:推 lovecut: 打不玩了XDDDD 10/08 21:00
440F:嘘 chin78909: 别输给兄弟二军好吗 10/08 21:01
441F:推 orznge: 小叶托腮 10/08 21:01
442F:→ f59952: 鲨鱼激动说火哥棒棒 主播打脸是永汉 10/08 21:01
443F:→ f59952: 鲨鱼还是 … 10/08 21:01
444F:→ lovecut: 二军上来观光 都太兴奋了狂H 10/08 21:01
445F:嘘 jimgene: 直接喷一发吧 10/08 21:01
446F:→ BaRanKa: 我兄的2军货以前都软趴趴 现在上来怎都比1军凶 10/08 21:02
447F:推 encorej77107: 爪爪今天滚地很会找洞 10/08 21:02
448F:推 xu3jo6su6: 平伟快被打爆了.. 10/08 21:02
449F:推 dooroqen: 二军有这麽猛 10/08 21:02
450F:→ jimmy8343: 爪爪二军先发比一军替补强 10/08 21:03
451F:推 luaniu: 这是二军火力 你敢信 10/08 21:03
452F:推 yoyoboy1: 平伟烂爆了 10/08 21:03
453F:推 encorej77107: 应该会换 10/08 21:03
454F:→ encorej77107: 赖今天真的不行 只有飘飘直球 投得好又找洞穿 10/08 21:04
455F:→ tim890116: 听说平伟现在在一个乐团当主唱了 10/08 21:04
456F:→ BaRanKa: 苏纬达 不要浪费汉草 来个GS吧 10/08 21:04
457F:推 hank85202: 二军象难得比赛有转播每个都卯起来打 10/08 21:05
458F:推 murray: 兄弟二军打击太强了 10/08 21:05
459F:推 dudeboy: 而且那个乐团都传富堡的工作服 超级好笑 10/08 21:06
460F:→ jimmy8343: 又来 10/08 21:06
461F:推 lovecut: 不是自杀的话不知道要打到几点XDDD 10/08 21:06
462F:推 forfan: 阳炮跑蛮快的 10/08 21:06
463F:→ BaRanKa: 没有某云的夜晚真是舒胡 10/08 21:06
464F:推 Saza: 子豪日常 10/08 21:06
465F:推 KY1998: 欢乐跑垒? 10/08 21:06
466F:推 Nobita: 打者记错出局数吧 10/08 21:06
467F:推 encorej77107: 爪爪跑垒连续搞笑XDDD 10/08 21:06
468F:嘘 chin78909: 义大 < 兄弟二军.....兄弟二军直接扛第五队好吗 10/08 21:06
469F:推 xu3jo6su6: 子豪拯救平伟 10/08 21:06
470F:→ encorej77107: 2出局 1垒那个上二垒跟本逼死前面那一个阿 10/08 21:07
471F:→ CKCDY: 我象二军火力展示会 10/08 21:08
472F:推 MAX777: 午午之前还幻想挑战赛,真的进爪派二军就横扫了吧 10/08 21:09
473F:→ weykh: 新人感谢祭 10/08 21:10
474F:推 encorej77107: 爪爪这麽强 TS大概也是用2军就能横扫了 10/08 21:10
475F:推 yoyoboy1: 义大被爪爪二军打16支安打了  屌屌der~~~ 10/08 21:12
476F:→ coon182: 4X来了 10/08 21:12
477F:推 lkkwing01: 谢谢524大师 10/08 21:13
478F:推 ysku: LF林王 CF子豪 RF蒋 3B基宏 2B潘 1B苏 C林 还少SS DH 10/08 21:13
479F:→ BaRanKa: 4X好鸟 = = 10/08 21:18
480F:推 FUNYUN: SS觉神XD? C警察 DH林吧?可以轮流 10/08 21:18
481F:推 batsakura: 4X要上来帮洗数据了 10/08 21:18
482F:→ BaRanKa: 完全不行 = = 10/08 21:19
483F:推 jj1004: 颗颗 阳洗的好开心XD 10/08 21:19
484F:推 xu3jo6su6: 这种局面还能投成这样 下去领81000吧 10/08 21:19
485F:推 dsauqt: 完全不能用 10/08 21:19
486F:推 davidwin17: 4X不EY 10/08 21:19
487F:→ encorej77107: 真3垒炮阿 10/08 21:19
488F:推 lovetaros: 4X… 10/08 21:19
489F:→ batsakura: 4X根本GG 午午快洗阿 10/08 21:20
490F:推 ORK: 耿肥可以丢了,省一些钱 10/08 21:20
491F:→ dsauqt: 下去2军领5万吧 10/08 21:20
492F:推 etop: 4X 年底会被释出吗 10/08 21:20
493F:嘘 jimgene: 现在主审就投手吗,又开外角海 10/08 21:20
494F:推 tony123839: 阳冠威真的养出来罗~ 当初酸不选蒋的那群哩 10/08 21:20
495F:→ daniel1344: 主审想下班了 10/08 21:20
496F:推 TAKEZOU: 这球好球? 10/08 21:20
497F:→ davidwin17: ...太海了 10/08 21:20
498F:→ encorej77107: XXXXXXXXXXXXXXXXXXXXXXXXXXXXXXx 10/08 21:20
499F:→ encorej77107: 这颗是今年年度纪录吧 10/08 21:20
500F:→ leo0916: 难看...拖台钱 10/08 21:20
501F:嘘 tetsu0401: 主审赶着去逛夜市 10/08 21:20
502F:推 jay1943webbe: 不会大逆转吧 10/08 21:20
503F:推 waterpoise: 主审萱放连假了吗 刚刚那球也太外角 10/08 21:21
504F:嘘 yyc1217: 主审赶下班 10/08 21:21
505F:→ encorej77107: 一头出去整颗都在外面2~3颗还可以举好球 10/08 21:21
506F:→ BaRanKa: 这个鸟4X 一直控不进去 10/08 21:21
507F:→ wh0386: 4XXZXxCCZXXX 10/08 21:21
508F:→ BaRanKa: 赶快换下去好吗 = = 烂尾 10/08 21:21
509F:→ coon182: 要被丢了,4X掰 10/08 21:21
510F:推 yoyoboy1: 4X今年大概就掰掰走人了  烂透了 10/08 21:22
511F:→ TAKEZOU: 4X真的欠 X 10/08 21:22
512F:推 ORK: 梗肥,增松,左郑,兄弟三大王牌 10/08 21:22
513F:推 jack7785: 给三棒打! 10/08 21:22
514F:→ leo0916: 换下去啦... 10/08 21:22
515F:推 chinfong: 耿胖轩有够烂的,我不懂为什麽兄弟还一直把他留在一军 10/08 21:22
516F:推 a1len: 咦??不是要做球给高国辉吗XDDDD 10/08 21:22
517F:→ banbantone: 约炮谦上了 10/08 21:23
518F:→ TAKEZOU: 刚刚第二球是今年我看过最夸张的好球 10/08 21:23
519F:推 dsauqt: 连直球都不敢投 10/08 21:23
520F:→ MAX777: 4X二军还能用啦 10/08 21:23
521F:推 littlething: 刚那颗好球太夸张,必须谴责 10/08 21:24
522F:推 jack7785: 球给国辉! 10/08 21:24
523F:→ Nobita: 超自杀棒也安打 10/08 21:24
524F:推 jay1943webbe: 大逆转就扯了喔 10/08 21:24
525F:→ forfan: 很好,不要DP就行 10/08 21:24
526F:推 danwhei: 40轰的呛斯 10/08 21:25
527F:推 yoyoboy1: 兄弟要被逆转了 笑死  不过没差 消化试合而已 10/08 21:25
528F:推 thirdblue: 想看国辉40轰阿 10/08 21:25
529F:推 MAX777: 想看40轰 10/08 21:25
530F:→ BaRanKa: 不要打到被逆吧 2军看来只有打者状况内 10/08 21:25
531F:推 jj1004: 拜托打到高国辉! 10/08 21:25
532F:推 ORK: 给耿去二军,还占位子咧 10/08 21:25
533F:→ Nobita: 再一个上垒就能看到桃园王 10/08 21:25
534F:推 a1len: 拜托做球给高国辉!!! 10/08 21:25
535F:推 ultratimes: \逆转胜/\逆转胜/\逆转胜/\逆转胜/\逆转胜/\逆转胜/ 10/08 21:26
536F:→ forfan: 很好!不要挥! 10/08 21:26
537F:推 lucy07030703: 很好,好好选 10/08 21:26
538F:→ forfan: 千万不要呆呆的挥棒 10/08 21:27
539F:→ jack7785: 要辉不要挥 10/08 21:27
540F:推 ORK: 吴复连的脸色超难看 10/08 21:27
541F:→ jimgene: 来个GS 10/08 21:27
542F:→ lucy07030703: 水拉~~~~保送拉 10/08 21:27
543F:→ forfan: 没错!不要挥就上垒了 10/08 21:27
544F:推 chocobo4235: 好惨........都不能用了 10/08 21:27
545F:推 Nobita: ok了 没双杀就能看到挑战40顺道收拾比赛了 10/08 21:27
546F:嘘 KY1998: 耿肥可不可以释出~ 10/08 21:27
547F:→ BaRanKa: 土投真的很多烂透了 今天还要用到官 下西下井 10/08 21:27
548F:→ coon182: 40轰出来就满足了 10/08 21:27
549F:推 yoyoboy1: 官大元热身  我快笑死啦 哈哈哈哈哈 10/08 21:28
550F:推 wh0386: 如果国辉4O轰楼下200p 10/08 21:28
551F:→ leo0916: 换投手换投手 10/08 21:28
552F:→ spy9527: 这些都是年底要丢掉的 10/08 21:28
553F:→ forfan: 我要看高满贯40轰 10/08 21:28
554F:推 thirdblue: \给我国辉/\给我国辉/\给我国辉/ 10/08 21:28
555F:推 jj1004: 差八分打到要用官大元就好笑了XD 10/08 21:28
556F:→ KY1998: 小叶都笑了 10/08 21:28
557F:→ ORK: 兄弟土投没有一个能投的,还想打TS 10/08 21:28
558F:推 lostguy: 打到官大元上就赚到了 10/08 21:28
559F:推 binzip: \我辉40轰/ 10/08 21:28
560F:→ coon182: 复点大概心里想着年底要丢哪几个 10/08 21:28
561F:推 kuoiann: DP味浓 10/08 21:29
562F:→ binzip: dp就好笑了 10/08 21:29
563F:推 ultratimes: 让兄弟投手在总冠军多消耗点犀牛就达到任务了 10/08 21:29
564F:推 a1len: \50轰!!/ 10/08 21:29
565F:推 SuperSg: 打开电视我还以为是昨天的重播哩 10/08 21:29
566F:→ johnny1972: 如果可以50轰也不错..... 10/08 21:29
567F:→ forfan: 阿浪50轰吧 10/08 21:29
568F:推 yoyoboy1: 干嘛叫官热身阿 就算被打到爆  兄弟也没差阿 10/08 21:29
569F:→ BaRanKa: 一堆土投今年都投1场好 然後炸5场 10/08 21:29
570F:→ yoyoboy1: 反正这些烂土投年底都要丢了 10/08 21:30
571F:推 POD0741: 後面三个在学主审XD 10/08 21:30
572F:推 wasata: 阿让满贯轰 楼下五位各200P 10/08 21:30
573F:→ yesno41: 太低了吧 10/08 21:30
574F:→ forfan: 算了,50轰太远,K掉好啦XD 10/08 21:30
575F:推 PCC2003: 好 10/08 21:30
576F:→ lucy07030703: 主审是想下班了吗!=_= 10/08 21:30
577F:→ johnny1972: 好 10/08 21:30
578F:→ daniel1344: 国家级投教一天不秀下限浑身不舒服 10/08 21:30
579F:→ mjwang3: 好 10/08 21:30
580F:→ coon182: 复点真浪费,都进总冠军了放掉哪有差 10/08 21:30
581F:推 thirdblue: 阿浪加油阿 10/08 21:30
582F:推 Sheng98: 後面好抢戏 10/08 21:30
583F:推 encorej77107: 低於膝盖... 10/08 21:30
584F:推 z19890506: 後面那三个是怎样 10/08 21:31
585F:→ a1len: 这麽低好球= = 10/08 21:31
586F:推 TAKEZOU: 好 10/08 21:31
587F:→ yyc1217: 想下班的主审最可怕惹 10/08 21:31
588F:推 kings1988: .......... 10/08 21:31
589F:推 tetsu0401: 本後的爪迷XD 10/08 21:31
590F:→ encorej77107: 好险这球没举了 周超会拉球 主审都买单 10/08 21:31
591F:→ lucy07030703: 哈哈哈安打拉 10/08 21:31
592F:→ forfan: 水水水 10/08 21:31
593F:推 hayato24: 挖,爪爪好厉害的二军,不是很屁吗 10/08 21:31
594F:→ thirdblue: 阿浪好神 10/08 21:31
595F:推 pdr666333: 追平分要来罗 10/08 21:31
596F:推 jimgene: 某人又要英雄命了 10/08 21:31
597F:推 murray: 倒地了 10/08 21:31
598F:→ tetsu0401: 啊!? 10/08 21:31
599F:→ z19890506: 那三个超碍眼的... 10/08 21:32
600F:→ PCC2003: 消化试合搞到出现伤兵... 10/08 21:32
601F:推 MAX777: 40轰40轰 10/08 21:32
602F:推 binzip: 子豪小弟抽筋? 10/08 21:32
603F:推 jj1004: 赔了夫人又折兵 练兵练成这样...... 10/08 21:32
604F:→ loveinmars: 好可怜... 10/08 21:32
605F:→ a1len: ............还受伤 10/08 21:32
606F:推 twoquarters: 打到高国辉上来 爪爪就危险了~~~ 10/08 21:32
607F:推 carhow: 义大犀牛 强攻!强攻! 10/08 21:32
608F:→ fgddm7: 腿............. 躺在地上 10/08 21:32
609F:→ yyc1217: 都要打TS了还搞成这样~"~ 10/08 21:32
610F:→ lucy07030703: 抽筋??? 10/08 21:32
611F:→ tetsu0401: 呃.... 10/08 21:32
612F:推 kuoiann: 看似拉伤 10/08 21:32
613F:→ pdr666333: 应该不只是抽筋 10/08 21:33
614F:推 Nobita: 担架耶 10/08 21:33
615F:推 HHJY: 受伤了QQ 10/08 21:33
616F:推 coon182: 强攻!!强攻!! 还是没有TS跟状元 10/08 21:33
617F:→ fgddm7: 抬出场了 10/08 21:33
618F:推 h88488848: 让很大....这两位丢10分都不意外 10/08 21:33
619F:→ lucy07030703: 拉伤了吗?希望没事@@ 10/08 21:33
620F:嘘 ORK: 传球传到要担架? 10/08 21:33
621F:→ tetsu0401: 抽筋不必用到单架吧 10/08 21:33
622F:推 bibyy: 一堆鸟投搞了一个打者 10/08 21:33
623F:→ mussina001: 抠连得土投,没战绩压力的比赛投成这样 10/08 21:33
624F:推 woker77: 过着? 10/08 21:33
625F:→ kuoiann: 抽筋不至於站不起来 10/08 21:33
626F:推 a12375111: 打消化试合打成这样... 10/08 21:33
627F:推 jay1943webbe: 照这样看剧本应该起码会至少给义大9分 做洞 10/08 21:33
628F:→ a1len: 被50轰的内力震到了齁 10/08 21:33
629F:推 evo2100: 隔壁大师兄也倒了... 10/08 21:33
630F:→ fgddm7: 主场优势.........球场自己养的? 10/08 21:33
631F:推 forfan: 传个球传到伤兵 10/08 21:33
632F:→ mussina001: 赶快释出别占缺了,尤其是耿胖 10/08 21:34
633F:推 aceliang: .......不会是ACL吧 10/08 21:34
634F:推 encorej77107: 抽筋不用担架吧= = 10/08 21:34
635F:推 TAKEZOU: 用担架拐气真的亏大了 10/08 21:34
636F:→ Nobita: 抽筋应该是扶下场 10/08 21:34
637F:嘘 KY1998: 左脚抖了一下 10/08 21:34
638F:→ a1len: 统一在观念中了5:5 10/08 21:34
639F:→ JoneNan: 某楼水准真的有够差 10/08 21:34
640F:推 orznge: 保重啊 10/08 21:34
641F:推 SungHyun: 左脚是不是有拐到 10/08 21:34
642F:→ MAX777: 刚刚要扑不扑之间去拉到了吧 10/08 21:34
643F:推 jkf790207: = = 感觉很严重捏 10/08 21:34
644F:→ SungHyun: 左脚踝那边 10/08 21:34
645F:推 murray: 担架抬出去了... 10/08 21:34
646F:→ encorej77107: 完全看不出来哪理有问题阿 都很顺 10/08 21:34
647F:→ a1len: 传完球马上就倒地 10/08 21:35
648F:→ forfan: 换投? 10/08 21:35
649F:推 f9968106: ??????????????? 10/08 21:35
650F:推 allenlee6710: 扭到膝盖? 10/08 21:35
651F:推 yyc1217: 人好多 10/08 21:35
652F:→ a12375111: 抬下场了...到底是? 10/08 21:35
653F:→ a1len: 拐气.... 10/08 21:35
654F:→ orznge: 怎麽两边都有事 10/08 21:35
655F:嘘 xu3jo6su6: 林克谦也可以打包了 投成这样 10/08 21:35
656F:推 dsauqt: 这些土投年底砍一坎 10/08 21:35
657F:推 jj1004: 我犀一整场都赶下班 结果派一个上来塞垒包..... 10/08 21:35
658F:→ forfan: 千万不要拐到我辉40轰的气 10/08 21:36
659F:推 spy9527: 放一堆废投上场投球搞到自己人也是蛮强的 10/08 21:36
660F:→ leo0916: 练到兵练到受伤有比较好吗 10/08 21:36
661F:→ BaRanKa: 丢脸...用到胜利组上来 10/08 21:36
662F:推 TAKEZOU: 踩道坑洞吧 10/08 21:36
663F:推 ORK: 一堆废X 10/08 21:36
664F:嘘 yoyoboy1: 白吃吗  换官干嘛  就算被打爆40分也没差吧 10/08 21:36
665F:推 MAX777: 这种比赛输会怎样啦 别那麽操好吗 10/08 21:36
666F:推 twoquarters: 居然用到官大元了XDD 10/08 21:36
667F:→ BaRanKa: 我恰上来守右外了 ..... 10/08 21:36
668F:推 pdr666333: 好久不见右外野恰恰 10/08 21:36
669F:推 secure69: ...... 10/08 21:36
670F:推 EETLcat: 恰恰RF!!!! 10/08 21:36
671F:→ sorrycar: 花到官都上了XD 10/08 21:36
672F:嘘 jimgene: 恰恰都久没守外野了 10/08 21:36
673F:推 h88488848: 可以丢一丢了 好心捡 投成这样 Orz 10/08 21:36
674F:推 StephenLai: 恰恰很久没守外野了 10/08 21:36
675F:→ encorej77107: 消化比赛 上官大元XDDDDDDDDDDDD 10/08 21:36
676F:推 murray: 消化试合打到恰恰出来守外野 XDDDD 10/08 21:36
677F:→ forfan: 很好,知道要打那边了 10/08 21:36
678F:推 PCC2003: 恰去RF 10/08 21:37
679F:推 andyboy960: 04紫卡恰来啦~ 10/08 21:37
680F:推 JEFF11503: 恰恰...... 10/08 21:37
681F:推 adsl50208: 恰右外XDD 10/08 21:37
682F:推 ttnakafzcm: 我洽RF........ 10/08 21:37
683F:→ jj1004: 恰恰还要上来守外野XDDD 练兵练到我笑了 10/08 21:37
684F:推 danwhei: 恰恰? 要快跑了 10/08 21:37
685F:→ coon182: 恰恰好久没外野了 10/08 21:37
686F:推 sshwann: 04紫恰RF 10/08 21:37
687F:推 lostguy: 久违的恰恰RF! 10/08 21:37
688F:推 etop: 打给肥恰运动一下 10/08 21:37
689F:→ sorrycar: 往外也打就对了 10/08 21:37
690F:嘘 fgddm7: 没外野了 10/08 21:37
691F:→ MAX777: 双守紫恰 10/08 21:37
692F:→ forfan: 好球?赶下班 10/08 21:37
693F:推 allenlee6710: 消化比赛弄成这样... 10/08 21:37
694F:嘘 larenz86: 这颗好球? 10/08 21:37
695F:→ EETLcat: 可怕恰恰来啦 10/08 21:37
696F:→ jj1004: 主审腿酸了 10/08 21:38
697F:→ ericpitt: 这好球@@? 10/08 21:38
698F:→ encorej77107: 又来超外角海Zzzzzzzzzzzzzzzzzzzzzzz 10/08 21:38
699F:嘘 littlething: 可怕的主审来了 10/08 21:38
700F:→ ericpitt: 没一颗好球 等级差太多了 10/08 21:38
701F:嘘 jimgene: 几乎都坏球,胃口真好 10/08 21:38
702F:嘘 yoyoboy1: 小飞刀药不要也顺便上来阿  白痴点总 输了会怎样吗? 10/08 21:38
703F:推 tetsu0401: 乱挥 10/08 21:38
704F:→ forfan: 被主审吃了一颗,不过没关系,我辉上场! 10/08 21:38
705F:→ MAX777: 派大元赢了也不会开心好吗? 10/08 21:38
706F:嘘 StephenLai: 主审太虾 10/08 21:39
707F:推 pdr666333: 40轰 追平分准备!!!!!!!!!!!!!!!!!!!!!!!!!!!!!!!!!!!! 10/08 21:39
708F:→ coon182: 肥刀都下去二军了怎麽上来 10/08 21:39
709F:推 twoquarters: 跪求一棒追平!!! 10/08 21:39
710F:→ BaRanKa: 想打久一点是吧 国辉你来吧 来一下 10/08 21:39
711F:推 etop: 高HR 楼下500P 10/08 21:39
712F:推 a12375111: 国辉来了 10/08 21:39
713F:→ jimgene: 肥刀在2军,上不来 10/08 21:39
714F:推 linisthebest: 预备 10/08 21:39
715F:推 thirdblue: 40轰40轰40轰 10/08 21:39
716F:→ wh0386: 国辉 10/08 21:39
717F:推 batsakura: 先猜辉辉再见DP 10/08 21:39
718F:→ calvinh: 4040404040 10/08 21:39
719F:→ wplinwp: 本垒後的球迷有点碍眼 10/08 21:39
720F:→ MAX777: 来个40轰天罚战神啦 10/08 21:39
721F:推 perhdball: 拜托40轰 10/08 21:39
722F:→ forfan: 喔,有甜到 10/08 21:39
723F:推 wasata: 国辉开轰 楼下五位各200P 10/08 21:39
724F:推 nick2142002: 高HR楼下280p 10/08 21:39
725F:→ a12375111: 好 10/08 21:39
726F:嘘 woody31317: 主审赶下班好球带 对原本选球就不好的还能要求什麽 10/08 21:39
727F:→ linisthebest: 好 10/08 21:39
728F:→ perhdball: 好 10/08 21:39
729F:推 j31003: 推 10/08 21:39
730F:→ lucy07030703: 40 10/08 21:39
731F:推 mjwang3: 轰吧 10/08 21:39
732F:推 TAKEZOU: HR楼下送我100P 10/08 21:40
733F:→ wh0386: 轰吧轰吧 10/08 21:40
734F:→ yoyoboy1: 就让林克谦爆的彻底有差吗? 反正年底都要丢了 10/08 21:40
735F:推 z19890506: 40 10/08 21:40
736F:推 encorej77107: K味浓 10/08 21:40
737F:→ forfan: H也行啦留些小菜给神全 10/08 21:40
738F:→ z19890506: 三个.. 10/08 21:40
739F:→ BaRanKa: 2个投手上来搞不下半个人 官上来就先锁一个 10/08 21:40
740F:→ wh0386: Nice 选! 10/08 21:41
741F:推 MAX777: 40轰 40轰 40轰 10/08 21:41
742F:→ forfan: 两好後就没甜球了 10/08 21:41
743F:推 linisthebest: -----------------炸------------------------ 10/08 21:41
744F:→ wh0386: 卖的 10/08 21:41
745F:推 smallwenwen: 後面几个爪迷很抢戏 10/08 21:41
746F:推 WongTakashi: GG 10/08 21:41
747F:推 EETLcat: 冲天炮~~ 10/08 21:41
748F:→ coon182: 辉辉明天请早 10/08 21:42
749F:推 ericpitt: 没接到也出局了啦.. 10/08 21:42
750F:→ wh0386: 马的 10/08 21:42
751F:→ BaRanKa: 喂......这种必死球接这麽险干嘛 10/08 21:42
752F:→ MAX777: 高飞必死 10/08 21:42
753F:嘘 KY1998: 接这麽抖? 10/08 21:42
754F:推 encorej77107: 这守备有点烂 10/08 21:42
755F:→ wh0386: 三井泉! 10/08 21:42
756F:→ forfan: 神全:这次有小菜了 10/08 21:42
757F:推 wasata: 神全开轰 楼下五位各200P 神全加油!! 10/08 21:42
758F:推 pdr666333: 神全还是有追分HR的机会 10/08 21:42
759F:→ encorej77107: 神全抢打点王阿 10/08 21:42
760F:推 sharkhead: 全仔炸裂楼下十楼200P 10/08 21:43
761F:推 perhdball: 好 10/08 21:43
762F:→ mingodu: 别啊 10/08 21:43
763F:推 nanwa: 推 10/08 21:43
764F:推 TAKEZOU: 赚打点靠自己了 2颗卤蛋机会 10/08 21:43
765F:推 psku: @@ 10/08 21:43
766F:→ Xiong271: 大胖又开始了XDDDDD 10/08 21:43
767F:推 dudeboy: 大胖一直在唬烂 10/08 21:43
768F:→ sorrycar: K味浓 10/08 21:43
769F:推 mjwang3: 打点王 10/08 21:43
770F:推 allenlee6710: go 10/08 21:43
771F:→ EETLcat: 过半 10/08 21:43
772F:推 l3086: 赚一下打点 10/08 21:43
773F:→ wh0386: No 10/08 21:43
774F:→ forfan: 好 10/08 21:43
775F:→ leo0916: k味浓 10/08 21:43
776F:→ TAKEZOU: 好 10/08 21:43
777F:推 thirdblue: 神全快把打点吃掉阿 10/08 21:43
778F:推 ericpitt: 安打就好 一拳把握一下 10/08 21:43
779F:→ wh0386: 轰出去楼下100P 10/08 21:43
780F:推 pjharper: 我官威武~ 10/08 21:44
781F:嘘 ORK: 後面那三只,感觉有点欠揍 10/08 21:44
782F:→ encorej77107: 大元杀成这样不进12强 真的很扯 10/08 21:44
783F:→ EETLcat: 好 10/08 21:44
784F:→ forfan: 喔,挥棒忽然加速 10/08 21:44
785F:→ dudeboy: 还有一只爪妹 10/08 21:44
786F:推 yoyoboy1: 官大元跟前面两只跟本1A与mlb的等级 10/08 21:44
787F:推 tony123839: 指叉球好猛.......但直球球速有点慢就是了 10/08 21:44
788F:→ BaRanKa: 不进最好 季後让他完整休息 10/08 21:44
789F:推 danwhei: 大刀? 10/08 21:44
790F:→ wh0386: 蚕豆!! 10/08 21:44
791F:→ wh0386: 轰出去再给楼下100P 10/08 21:45
792F:→ forfan: 高: 小菜给你了还不吃 10/08 21:45
793F:推 perhdball: 好 10/08 21:45
794F:推 MAX777: 结果消化比赛还赚到救援点zzz 10/08 21:45
795F:→ wh0386: QQ 10/08 21:45
796F:→ EETLcat: GG 10/08 21:45
797F:推 WongTakashi: GG 10/08 21:45
798F:嘘 coon182: 难看 10/08 21:45
799F:推 chocobo4235: 差真多.......官大元轻松解决三个 10/08 21:45
800F:→ coon182: 两个土投八分领先可以搞到有救援点 10/08 21:45
801F:→ BaRanKa: 让他上场收尾就是真的投手太差 10/08 21:45
802F:推 danielpowter: 根本都没有好球,想要打点想到失准头 10/08 21:45
803F:→ chocobo4235: 前两只连一个都解决不了是怎样... 10/08 21:46
804F:→ MAX777: 派大元 赢了一点也不开心 10/08 21:46
805F:推 batsakura: 等级差真多 10/08 21:46
806F:推 pdr666333: 差真多 把中心棒次都KO了 10/08 21:46
807F:推 encorej77107: 你爪大亏 消化比赛还烧大元+伤兵 10/08 21:46
808F:推 leo0916: fire前两个,帮官大元加薪啦 10/08 21:46
809F:推 sawkuanwoo: 官:我居然没进P12 10/08 21:46
810F:推 yyc1217: 还是希望子豪弟弟没事啦 10/08 21:47
811F:推 ericpitt: 陈没差吧 张回来了 还有郭 10/08 21:47
812F:推 POD0741: 亏爆啦 10/08 21:47
813F:推 danwhei: 苏伟苏伟在哪里 10/08 21:47
814F:推 yoyoboy1: 陈子豪 冠军赛也不一定能上场阿 10/08 21:47
815F:推 MAX777: 前面那两只的薪水明年给大元吧 10/08 21:47
816F:推 mussina001: 不好吧~留点钱以後卖面开店用 10/08 21:48
817F:→ yoyoboy1: 外野有思齐 威助 花花 志豪 不太缺子豪.... 10/08 21:48
818F:→ BaRanKa: 子豪不必打没差 有我琳跟建鱼 10/08 21:48
819F:推 dsauqt: 前面2个废投年底坎ㄧ坎 10/08 21:48
820F:→ BaRanKa: 只是4X跟KOKO真的是投的乱七八糟 10/08 21:49
821F:推 f59952: 子豪至少有臂力 10/08 21:59
822F:推 aa97531aa: 午午。唉 10/08 22:00
823F:→ jimgene: 子豪有臂力? 我们是看同一个人吗? 10/08 22:00
824F:推 chiaamay: 子豪TS定位应该是第4号外野手 第2号代打手 .. 10/08 22:05
825F:推 aska5566: 这场爪其实也输不得 气势 10/08 22:17
826F:→ knml: 没挥@@ 10/08 22:21
827F:→ sinohara: 子豪对LM常判断错误E 10/08 22:29
828F:推 alwang: 陈子豪最糟的就是臂力了 OF居然用3/4投法传球... 10/08 22:42







like.gif 您可能会有兴趣的文章
icon.png[问题/行为] 猫晚上进房间会不会有憋尿问题
icon.pngRe: [闲聊] 选了错误的女孩成为魔法少女 XDDDDDDDDDD
icon.png[正妹] 瑞典 一张
icon.png[心得] EMS高领长版毛衣.墨小楼MC1002
icon.png[分享] 丹龙隔热纸GE55+33+22
icon.png[问题] 清洗洗衣机
icon.png[寻物] 窗台下的空间
icon.png[闲聊] 双极の女神1 木魔爵
icon.png[售车] 新竹 1997 march 1297cc 白色 四门
icon.png[讨论] 能从照片感受到摄影者心情吗
icon.png[狂贺] 贺贺贺贺 贺!岛村卯月!总选举NO.1
icon.png[难过] 羡慕白皮肤的女生
icon.png阅读文章
icon.png[黑特]
icon.png[问题] SBK S1安装於安全帽位置
icon.png[分享] 旧woo100绝版开箱!!
icon.pngRe: [无言] 关於小包卫生纸
icon.png[开箱] E5-2683V3 RX480Strix 快睿C1 简单测试
icon.png[心得] 苍の海贼龙 地狱 执行者16PT
icon.png[售车] 1999年Virage iO 1.8EXi
icon.png[心得] 挑战33 LV10 狮子座pt solo
icon.png[闲聊] 手把手教你不被桶之新手主购教学
icon.png[分享] Civic Type R 量产版官方照无预警流出
icon.png[售车] Golf 4 2.0 银色 自排
icon.png[出售] Graco提篮汽座(有底座)2000元诚可议
icon.png[问题] 请问补牙材质掉了还能再补吗?(台中半年内
icon.png[问题] 44th 单曲 生写竟然都给重复的啊啊!
icon.png[心得] 华南红卡/icash 核卡
icon.png[问题] 拔牙矫正这样正常吗
icon.png[赠送] 老莫高业 初业 102年版
icon.png[情报] 三大行动支付 本季掀战火
icon.png[宝宝] 博客来Amos水蜡笔5/1特价五折
icon.pngRe: [心得] 新鲜人一些面试分享
icon.png[心得] 苍の海贼龙 地狱 麒麟25PT
icon.pngRe: [闲聊] (君の名は。雷慎入) 君名二创漫画翻译
icon.pngRe: [闲聊] OGN中场影片:失踪人口局 (英文字幕)
icon.png[问题] 台湾大哥大4G讯号差
icon.png[出售] [全国]全新千寻侘草LED灯, 水草

请输入看板名称,例如:Gossiping站内搜寻

TOP